Location: Northwest Suburban Astronomers
(42.1100°N, 88.0300°W)
Time: 15:38:10
(UTC-05:00)

Daily predictions for brighter satellites

Satellite Brightness Start Highest point End
(mag) Time Altitude Azimuth Time Altitude Azimuth Time Altitude Azimuth
Cosmos 1943 Rocket 4.0 18:56:29 10° NNE 18:59:04 13° NE 19:01:37 10° ENE
NOSS 3-2 (C) 3.7 18:54:43 10° SW 19:00:48 82° NW 19:07:30 10° NE
Cosmos 1420 Rocket 4.4 18:57:00 10° N 19:02:04 43° ENE 19:07:08 10° SE
Cosmos 1346 4.0 19:03:09 10° NNE 19:05:47 27° ENE 19:08:23 10° SE
Cosmos 1408 Rocket 3.5 19:01:31 10° N 19:05:51 64° E 19:10:07 10° SSE
SKYMED 2 3.6 19:04:15 10° NNE 19:08:37 87° WNW 19:12:57 10° SSW
OAO 3 Rocket 4.5 19:05:01 10° WSW 19:09:12 32° S 19:13:25 10° SE
Cosmos 1464 Rocket 4.0 19:04:35 10° S 19:10:49 79° E 19:16:59 10° N
Cosmos 2369 Rocket 3.0 19:06:11 10° N 19:11:12 31° NE 19:16:12 10° ESE
Helios 1A 4.0 19:07:38 10° SE 19:11:12 27° ENE 19:14:46 10° N
Cosmos 2034 Rocket 4.1 19:05:35 10° S 19:11:43 60° E 19:17:57 10° NNE
Cosmos 1805 3.3 19:08:21 10° S 19:12:11 54° E 19:16:02 10° NNE
Cosmos 1943 4.0 19:09:06 10° SSE 19:13:49 28° ESE 19:18:32 10° NE
FREGAT/IRIS 3.0 19:12:45 10° SSE 19:15:41 42° ENE 19:18:38 10° N
Spot 2 Rocket 3.9 19:12:42 10° SE 19:17:24 41° ENE 19:22:07 10° N
Cosmos 1048 Rocket 4.2 19:16:24 10° S 19:21:28 48° ESE 19:26:29 10° NNE
Cosmos 1603 3.7 19:16:14 10° SSW 19:21:57 77° ESE 19:27:43 10° NNE
HJ-1C 3.9 19:22:27 10° SE 19:25:37 39° ENE 19:28:47 10° N
Cosmos 1733 4.2 19:23:15 10° SE 19:26:25 24° E 19:29:35 10° NE
In-Cosmos 22 4.4 19:21:15 10° N 19:27:04 84° W 19:32:47 10° S
Gbstr 26 Del rocket 3.4 19:24:03 10° SSW 19:28:10 49° SE 19:32:54 11° ENE
Cosmos 1269 Rocket 4.0 19:24:12 10° S 19:29:25 67° ESE 19:34:40 10° NNE
Cosmos 1174 4.4 19:27:17 10° S 19:31:43 39° ESE 19:35:20 10° NE
Cosmos 1674 3.1 19:28:12 10° N 19:31:54 40° ENE 19:35:33 10° SSE
Cosmos 1953 2.3 19:27:58 10° S 19:31:57 83° W 19:35:57 10° N
TELKOM 3 3.0 19:29:34 10° WNW 19:32:31 86° NNE 19:33:42 25° ESE
USA 215 3.8 19:26:50 10° ENE 19:32:45 36° SE 19:38:38 10° SSW
Helios 1B rocket 2.7 19:31:45 10° NNE 19:35:43 45° E 19:39:40 10° S
Spot 1 4.1 19:31:15 10° SSE 19:35:51 68° ENE 19:40:11 10° N
Cosmos 1743 Rocket 3.5 19:33:04 10° N 19:37:30 67° E 19:41:51 10° SSE
Cosmos 1470 3.0 19:35:03 10° SSE 19:38:42 42° E 19:42:23 10° NNE
CZ-4B DEB 3.9 19:39:43 24° E 19:40:19 26° ENE 19:43:05 10° NNE
Resurs 1-3 3.7 19:38:30 10° SSE 19:42:46 53° ENE 19:47:03 10° N
ATLAS 5 CENTAUR R/B 3.3 19:38:19 10° WSW 19:42:51 39° NW 19:47:47 10° NNE
Cosmos 1544 3.2 19:42:33 10° S 19:46:17 82° W 19:50:03 10° N
Resurs 01 Rocket 1.6 19:48:53 10° SSE 19:53:20 89° E 19:57:49 10° NNW
ERS-1 Rocket 4.5 19:56:03 18° ENE 19:56:03 18° ENE 19:59:16 10° NNE
Cosmos 2058 4.0 19:52:43 10° NNE 19:55:45 25° ENE 19:55:45 25° ENE
METEOR-M 4.3 19:52:11 10° S 19:57:32 76° WSW 20:02:55 10° NNW
SJ-6B 4.3 19:55:10 10° SSW 19:58:57 39° W 20:02:49 10° NNW
Meteor 1-16 Rocket 4.5 19:54:11 10° SSE 19:59:01 38° E 20:03:55 10° NNE
SL-8 R/B 3.9 19:56:28 10° WSW 20:01:13 66° NNW 20:04:09 23° NE
ALOS 2.2 19:58:30 14° SSE 20:02:24 62° ENE 20:07:01 10° N
FengYun 1-2 T 4.1 20:00:46 10° SSE 20:06:16 89° ENE 20:11:48 10° NNW
Cosmos 2151 3.0 20:05:58 10° N 20:10:08 55° E 20:11:12 42° SE
ASTEX 1 3.2 20:05:25 10° N 20:10:20 74° E 20:15:12 10° S
Meteor 1-29 3.0 20:07:06 10° N 20:10:37 78° WNW 20:14:05 10° SSW
Nadezhda 4 Rocket 4.3 20:05:33 10° NNW 20:11:46 67° W 20:17:52 10° S
Cosmos 1110 Rocket 4.1 20:07:09 10° NNW 20:12:22 56° ENE 20:14:19 36° SE
Cosmos 2279 Rocket 4.3 20:09:23 16° SSE 20:13:50 40° E 20:19:33 10° NNE
GP-B 3.1 20:09:41 10° N 20:14:04 54° E 20:15:21 39° SE
Meteor 1-11 4.4 20:09:55 10° N 20:15:36 53° ENE 20:17:57 33° SE
FENGYUN 3A 3.5 20:13:33 12° SSE 20:18:36 85° ENE 20:24:02 10° NNW
Cosmos 1805 Rocket 4.5 20:15:24 10° N 20:18:30 32° NE 20:18:30 32° NE
Cosmos 2221 3.9 20:21:55 25° NE 20:21:55 25° NE 20:23:56 10° NNE
ISS -2.0 20:17:04 10° W 20:20:05 35° NNW 20:20:46 31° N
Cosmos 1092 Rocket 4.1 20:16:39 10° N 20:22:49 75° W 20:28:57 10° S
Abrixas 4.0 20:22:24 10° W 20:25:01 30° NNW 20:25:01 30° NNW
GPS 2-04 Rocket1 4.0 20:25:46 10° WSW 20:28:01 25° SSW 20:28:01 25° SSW
Cosmos 2026 Rocket 3.8 20:26:33 10° N 20:32:40 75° E 20:35:54 30° SSE
CENTAUR R/B 2.8 20:26:50 10° SW 20:32:54 70° NW 20:39:49 10° NNE
CZ-2D R/B 3.4 20:32:42 62° SSW 20:33:14 74° WSW 20:37:08 10° NNW
Cosmos 2142 Rocket 4.5 20:27:25 10° S 20:33:48 88° W 20:40:15 10° N
Cosmos 2251 Rocket 3.3 20:29:00 10° SSW 20:34:13 77° ESE 20:39:28 10° NNE
Cosmos 494 Rocket 4.0 20:29:31 10° S 20:37:17 28° NE 20:39:44 10° NNE
Cosmos 839 Rocket 4.3 20:28:46 10° NW 20:36:18 75° WSW 20:39:42 30° SSE
Cosmos 1328 4.0 20:32:52 10° NNW 20:36:50 68° W 20:37:21 59° SW
Cosmos 1655 Rocket 3.8 20:31:10 10° N 20:37:23 73° E 20:39:53 38° SSE
SL-14 R/B 4.0 20:34:17 10° N 20:37:14 46° N 20:37:14 46° N
Cosmos 1634 Rocket 4.1 20:33:42 10° SSW 20:39:55 75° W 20:46:09 10° N
ERBS 3.7 20:37:04 10° NW 20:39:19 35° NNW 20:39:19 35° NNW
H-2A R/B 3.2 20:41:19 56° SW 20:41:39 58° W 20:45:29 10° NNW
Cosmos 1331 Rocket 3.9 20:37:14 10° NNW 20:42:35 89° ENE 20:43:31 62° SSE
Cosmos 1943 Rocket 2.0 20:38:14 10° NNW 20:43:52 73° ENE 20:44:22 68° ESE
Meteor 2-20 4.4 20:41:30 10° N 20:47:36 61° E 20:47:51 61° E
Cosmos 2369 Rocket 3.3 20:50:03 10° NW 20:55:18 40° WSW 20:58:45 20° SSW
Cosmos 1302 Rocket 4.2 20:51:53 10° NNW 20:56:15 59° NNE 20:56:15 59° NNE
Cosmos 1943 4.3 20:52:19 10° SW 20:57:39 42° WNW 21:02:59 10° NNE
Envisat 3.9 21:08:51 40° N 21:08:51 40° N 21:12:09 10° N
Gbstr 26 Del rocket 4.3 21:10:45 10° W 21:15:19 45° NNW 21:15:31 45° NNW
USA 215 3.4 21:13:01 34° NE 21:16:01 68° NW 21:22:29 10° WSW
ERS-1 Rocket 4.3 21:36:04 36° NW 21:36:04 36° NW 21:39:12 10° NNW
BREEZE-M DEB (TANK) 4.5 21:41:49 10° WNW 21:46:53 36° WNW 21:46:53 36° WNW
